BEIDOU-3 M18 (C37)

Last updated on Fri Jun 19 2026 20:04:41 GMT+0000 (Coordinated Universal Time)

1 43707U 18093B 26170.32164601 .00000059 00000+0 00000+0 0 9993 2 43707 54.1697 182.2155 0008016 320.7909 39.1732 1.86226376 51578
UTC large
Height (km)
Speed (km/s)
/
Latitude / Longitude
Inclination (degrees)
Orbital Period (minutes)
Azimuth
Elevation
Range (km)
Doppler Factor

Next 0 passes for location: London (51.5072 / 0.1276)

No passes found over London.
BEIDOU-3 M18 (C37)